DW3200 Weather Reports


time (UTC)temp
C
wind
direction
speed
KPH
gust
KPH
rain 1hr
cm
rain 24hr
cm
rain mn
cm
humidity
%
barometer
mb
20260906143031 6 290 0.0 0.0 0.00 0.00 0.00 93 1012.8
20260906141532 5 290 0.0 0.0 0.00 0.00 0.00 92 1012.9
20260906140108 4 290 0.0 0.0 0.00 0.00 0.00 91 1013.0
20260906134601 3 290 0.0 0.0 0.00 0.00 0.00 91 1013.0
20260906133040 4 290 0.0 0.0 0.00 0.00 0.00 91 1012.9
20260906131541 4 290 0.0 0.0 0.00 0.00 0.00 91 1013.0
20260906130035 4 290 0.0 0.0 0.00 0.00 0.00 91 1013.0
20260906124522 5 290 0.0 0.0 0.00 0.00 0.00 91 1012.9
20260906123002 5 290 0.0 0.0 0.00 0.00 0.00 91 1012.9
20260906121502 5 290 0.0 0.0 0.00 0.00 0.00 91 1012.9
20260906120049 5 290 0.0 0.0 0.00 0.00 0.00 91 1013.0
20260906114543 5 290 0.0 0.0 0.00 0.00 0.00 91 1013.2
20260906113024 5 290 0.0 0.0 0.00 0.00 0.00 90 1013.3
20260906111523 6 290 0.0 0.0 0.00 0.00 0.00 90 1013.4
20260906110008 6 290 0.0 0.0 0.00 0.00 0.00 90 1013.5
20260906104513 6 290 0.0 0.0 0.00 0.00 0.00 90 1013.5
20260906103046 6 290 0.0 0.0 0.00 0.00 0.00 90 1013.6
20260906101546 6 290 0.0 0.0 0.00 0.00 0.00 89 1013.8
20260906100029 7 290 0.0 0.0 0.00 0.00 0.00 89 1013.8
20260906094540 7 290 0.0 0.0 0.00 0.00 0.00 88 1013.8
20260906093014 7 290 0.0 0.0 0.00 0.00 0.00 88 1014.0
20260906091512 7 290 0.0 0.0 0.00 0.00 0.00 88 1014.1
20260906090012 7 290 0.0 0.0 0.00 0.00 0.00 87 1014.4
20260906084514 8 290 0.0 0.0 0.00 0.00 0.00 87 1014.5
20260906083011 8 290 0.0 0.0 0.00 0.00 0.00 87 1014.4
20260906081534 8 290 1.6 0.0 0.00 0.00 0.00 86 1014.4
20260906080010 8 290 0.0 0.0 0.00 0.00 0.00 86 1014.5
20260906074509 8 290 0.0 0.0 0.00 0.00 0.00 86 1014.3
20260906073008 8 290 0.0 0.0 0.00 0.00 0.00 85 1014.3
20260906071508 9 290 0.0 0.0 0.00 0.00 0.00 85 1015.0
20260906070010 9 290 0.0 0.0 0.00 0.00 0.00 84 1014.5
20260906064510 9 290 0.0 0.0 0.00 0.00 0.00 84 1014.8
20260906063010 9 290 0.0 0.0 0.00 0.00 0.00 83 1014.9
20260906061509 9 290 0.0 0.0 0.00 0.00 0.00 81 1015.2
20260906060050 10 290 0.0 0.0 0.00 0.00 0.00 80 1015.0
20260906054548 10 290 0.0 0.0 0.00 0.00 0.00 80 1015.1
20260906053031 10 290 0.0 0.0 0.00 0.00 0.00 78 1015.1
20260906051531 11 290 0.0 0.0 0.00 0.00 0.00 77 1015.2
20260906050015 11 290 0.0 0.0 0.00 0.00 0.00 75 1015.1
20260906044513 11 290 0.0 0.0 0.00 0.00 0.00 73 1015.1
20260906043057 12 290 0.0 0.0 0.00 0.00 0.00 70 1015.1
20260906041555 12 290 0.0 0.0 0.00 0.00 0.00 68 1015.1
20260906040038 13 290 0.0 0.0 0.00 0.00 0.00 66 1015.2
20260906034543 13 290 0.0 0.0 0.00 0.00 0.00 65 1015.0
20260906033019 14 290 0.0 0.0 0.00 0.00 0.00 63 1015.0
20260906031534 15 290 1.6 0.0 0.00 0.00 0.00 62 1015.0
20260906030002 15 290 6.4 0.0 0.00 0.00 0.00 62 1014.9
20260906024500 15 286 8.0 0.0 0.00 0.00 0.00 61 1014.7
20260906023049 15 286 8.0 0.0 0.00 0.00 0.00 60 1014.6
20260906021549 16 285 11.3 0.0 0.00 0.00 0.00 59 1014.5
20260906020031 16 300 14.5 0.0 0.00 0.00 0.00 57 1014.3
20260906014524 17 284 14.5 0.0 0.00 0.00 0.00 55 1014.2
20260906013006 18 269 14.5 0.0 0.00 0.00 0.00 51 1014.3
20260906011511 19 275 14.5 0.0 0.00 0.00 0.00 45 1014.2
20260906010054 21 281 11.3 0.0 0.00 0.00 0.00 38 1013.8
20260906004550 21 280 8.0 0.0 0.00 0.00 0.00 38 1013.8
20260906003029 22 290 9.7 0.0 0.00 0.00 0.00 35 1013.7
20260906001532 22 293 6.4 0.0 0.00 0.00 0.00 33 1013.7
20260906000011 22 306 4.8 0.0 0.00 0.00 0.00 31 1013.7
20260905234510 22 221 3.2 0.0 0.00 0.00 0.00 32 1013.8
20260905233100 22 294 4.8 0.0 0.00 0.00 0.00 31 1013.9
20260905231549 22 32 0.0 0.0 0.00 0.00 0.00 29 1013.9
20260905230036 22 32 1.6 0.0 0.00 0.00 0.00 29 1014.0
20260905224535 22 21 3.2 0.0 0.00 0.00 0.00 31 1014.1
20260905223038 22 65 0.0 0.0 0.00 0.00 0.00 29 1014.3
20260905221543 22 66 3.2 0.0 0.00 0.00 0.00 29 1014.4
20260905220030 22 47 3.2 0.0 0.00 0.00 0.00 30 1014.6
20260905213027 22 276 3.2 0.0 0.00 0.00 0.00 30 1014.8
20260905211539 21 288 6.4 0.0 0.00 0.00 0.00 30 1015.0
20260905210006 22 304 3.2 0.0 0.00 0.00 0.00 30 1015.2
20260905204502 21 244 1.6 0.0 0.00 0.00 0.00 36 1015.3
20260905203044 20 219 4.8 0.0 0.00 0.00 0.00 37 1015.3
20260905201603 21 78 0.0 0.0 0.00 0.00 0.00 38 1015.6
20260905200042 20 76 1.6 0.0 0.00 0.00 0.00 42 1015.7
20260905194524 20 69 3.2 0.0 0.00 0.00 0.00 46 1016.0
20260905193022 19 355 1.6 0.0 0.00 0.00 0.00 47 1016.1
20260905191519 19 324 1.6 0.0 0.00 0.00 0.00 51 1016.3
20260905190016 18 325 1.6 0.0 0.00 0.00 0.00 55 1016.5
20260905184514 18 322 1.6 0.0 0.00 0.00 0.00 55 1016.6
20260905183012 17 323 1.6 0.0 0.00 0.00 0.00 57 1016.7
20260905181509 17 331 0.0 0.0 0.00 0.00 0.00 55 1016.9
20260905180059 16 332 1.6 0.0 0.00 0.00 0.00 59 1016.9
20260905174559 16 9 0.0 0.0 0.00 0.00 0.00 61 1017.0
20260905173027 16 9 0.0 0.0 0.00 0.00 0.00 64 1017.2
20260905171538 15 9 0.0 0.0 0.00 0.00 0.00 68 1017.3
20260905170004 15 10 0.0 0.0 0.00 0.00 0.00 72 1017.4
20260905164600 13 10 0.0 0.0 0.00 0.00 0.00 79 1017.4
20260905163057 13 10 0.0 0.0 0.00 0.00 0.00 85 1017.4
20260905161540 12 10 0.0 0.0 0.00 0.00 0.00 90 1017.4
20260905160044 11 10 0.0 0.0 0.00 0.00 0.00 93 1017.4
20260905154518 10 10 0.0 0.0 0.00 0.00 0.00 94 1017.6
20260905153010 8 10 0.0 0.0 0.00 0.00 0.00 94 1017.8
20260905151546 7 10 0.0 0.0 0.00 0.00 0.00 94 1017.9
20260905150043 6 10 0.0 0.0 0.00 0.00 0.00 94 1017.8
20260905144535 5 10 0.0 0.0 0.00 0.00 0.00 93 1017.7